Lid_Strength_Index
11 10 10 10 11 11 11 10 10 9 9 8 8 7 6 7 7 7 6 6 7 7
12 12 12 12 12 12 13 12 12 11 11 10 9 9 8 8 7 7 7 8 8 8
13 13 13 14 14 14 13 13 13 13 13 12 11 11 11 11 10 9 10 9 9 10
14 14 14 15 15 15 14 14 14 13 13 13 13 12 12 12 13 12 12 12 11 10
14 15 16 16 16 15 16 15 15 15 14 14 13 12 13 14 14 14 13 14 13 13
15 16 16 16 16 15 15 15 15 15 15 15 15 14 13 13 13 14 14 14 14 13
16 16 16 16 16 16 16 16 16 15 15 15 14 13 13 13 14 14 13 12 12 11
15 16 16 16 16 16 16 16 16 16 15 15 14 12 12 13 13 13 14 13 12 12
16 16 16 16 17 17 17 17 16 16 16 16 14 10 9 11 13 12 12 12 13 13
16 16 16 17 17 18 18 17 17 17 16 16 15 9 9 9 12 12 12 12 12 11
16 16 17 17 18 18 18 17 17 17 16 16 14 9 9 9 13 12 12 11 12 12
16 17 17 17 18 18 18 18 17 16 16 16 15 10 9 10 13 13 13 12 12 11
16 17 18 18 19 18 18 16 16 16 16 14 16 11 10 10 13 14 14 13 12 10
16 17 18 19 19 19 18 18 18 17 17 17 15 14 10 10 13 13 13 12 12 12